Flag for Canada Weather past 2 weeks in Coquitlam, British Columbia, Canada

Now
51 °F

Cool.


Feels Like: 51 °F
Forecast: 47 / 51 °F
Wind: 3 mph from East

Location: P. Meadows Coastal Station


UV Index: 0 (Low)

Visibility: N/A


Pressure: 29.78 "Hg

Humidity: 93%

Dew point: 49 °F

Location of CoquitlamLocation

Historic Weather in Coquitlam

°F

Coquitlam temperature yesterday

Maximum temperature yesterday: 51 °F (at 4:00 PM)
Minimum temperature yesterday: 45 °F (at 8:00 AM)
Average temperature yesterday: 48 °F

Past Weeks' High & Low Weather Summary

 TemperatureHumidityPressure
High68 °F (Apr 13, 4:00 PM)100% (Apr 14, 6:00 AM)30.34 "Hg (Apr 14, 6:00 AM)
Low35 °F (Apr 14, 6:00 AM)24% (Apr 13, 12:00 PM)29.79 "Hg (Apr 17, 12:00 PM)
Average49 °F74%30.09 "Hg
* Reported Apr 2 12:00 Noon — Apr 17 12:00 Noon, Coquitlam, Weather by CustomWeather, © 2014

Note: Actual official high and low records may vary slightly from our data, if they occured in-between our weather recording intervals... More about our weather records

Advertising

Historic Weather Conditions — Data for Previous 24 hours

 ConditionsComfort  
Time TempWeatherWind HumidityBarometerVisibility
12:00 PM
Apr 17
51 °FCool.5 mph94%29.79 "HgN/A
11:00 AM51 °FCool.1 mph91%29.80 "HgN/A
10:00 AM50 °FCool.1 mph92%29.81 "HgN/A
9:00 AM50 °FCool.2 mph94%29.82 "HgN/A
8:00 AM47 °FCool.3 mph100%29.83 "HgN/A
7:00 AM48 °FCool.1 mph97%29.83 "HgN/A
6:00 AM49 °FCool.2 mph93%29.83 "HgN/A
5:00 AM49 °FCool.2 mph86%29.83 "HgN/A
4:00 AM50 °FCool.6 mph92%29.83 "HgN/A
3:00 AM49 °FCool.No wind97%29.84 "HgN/A
2:00 AM49 °FCool.3 mph97%N/AN/A
1:00 AM49 °FCool.No wind96%29.88 "HgN/A
12:00 AM50 °FCool.2 mph97%29.90 "HgN/A
11:00 PM
Apr 16
50 °FCool.1 mph96%29.92 "HgN/A
10:00 PM50 °FCool.1 mph94%29.94 "HgN/A
9:00 PM49 °FCool.2 mph97%29.94 "HgN/A
8:00 PM50 °FCool.1 mph96%29.95 "HgN/A
7:00 PM50 °FCool.3 mph97%29.96 "HgN/A
6:00 PM49 °FCool.2 mph100%29.98 "HgN/A
5:00 PM51 °FCool.5 mph95%29.99 "HgN/A
4:00 PM51 °FCool.6 mph93%30.00 "HgN/A
3:00 PM50 °FCool.2 mph96%30.01 "HgN/A
2:00 PM48 °FCool.5 mph90%30.02 "HgN/A
Weather by CustomWeather, © 2014

See weather overview